Regional Weather Roundup
Issued by NWS Midland/Odessa, TX

Skip options and go directly to product.
Home | Oldest Version | Previous Version | Current Version | All | Text Only | Save Text | Print | Product List | Glossary On

Skip product version selection by date and time.   
006
ASUS44 KMAF 141410
RWRMAF
MIDLAND AREA WEATHER ROUNDUP
NATIONAL WEATHER SERVICE MIDLAND TX
800 AM CST SUN FEB 14 2016

...IN SOUTHWEST TEXAS AND SOUTHEAST NEW MEXICO...

CITY           SKY/WX    TMP DP  RH WIND       PRES   REMARKS
ALPINE         CLOUDY    55  16  21 S6        30.10R
ANDREWS        FAIR      45  37  71 N15G23    30.00R WCI  39
ARTESIA        CLOUDY    36  23  60 N8        30.03R WCI  29
BIG SPRING     CLOUDY    41  36  81 W6        29.99R WCI  37
CARLSBAD       CLOUDY    36  23  59 N10       29.99R WCI  28
DRYDEN           N/A     47  43  86 N6        29.98R
FORT STOCKTON  CLOUDY    50  25  37 S7        29.98R
GUAD PASS      CLEAR     52   8  17 SW9       30.08R
HOBBS          CLEAR     39  25  56 N17G25    30.01R WCI  30
MARFA          CLOUDY    35  16  45 N3        30.08R
MIDLAND AIRPK  CLOUDY    47  37  70 CALM      29.97R
MIDLAND INTL   CLOUDY    45  37  73 SW3       29.96R
ODESSA         CLOUDY    47  37  68 SW8       29.97R
PECOS          PTCLDY    35  30  81 W3        29.97R
PRESIDIO       FAIR      50  21  32 N12       30.01R
SEMINOLE       CLOUDY    44  27  52 N16G23    30.01R WCI  36
SNYDER           N/A     43  38  83 NW7       29.97R WCI  39
WINK           CLOUDY    34  31  88 N7        29.95R WCI  28
$$
...OTHER STATIONS IN TEXAS...

CITY           SKY/WX    TMP DP  RH WIND       PRES   REMARKS
ABILENE        PTCLDY    54  50  86 SW15G23   29.90R
AMARILLO       CLOUDY    35  26  69 NW9       30.04R WCI  28
AUSTIN         CLOUDY    56  54  93 S7        30.02F
BROWNSVILLE    SUNNY     64  62  93 SE12      30.03S
CORPUS CHRISTI MOSUNNY   60  57  89 SE12      30.05S
DALLAS FTW     MOCLDY    60  53  77 S17       29.95R
DEL RIO        CLOUDY    58  53  84 SE14      29.98S
EL PASO        MOCLDY    39  14  36 E5        30.04R WCI  36
HOUSTON INT    PTSUNNY   59  57  93 S6        30.07F FOG
LUBBOCK        CLOUDY    40  30  67 N13       30.00R WCI  32
SAN ANGELO     CLEAR     54  50  86 SW14      29.95R
SAN ANTONIO    CLOUDY    57  55  93 S8        30.03F FOG
WACO           CLOUDY    59  53  80 S20G26    29.99F
WICHITA FALLS  NOT AVBL
$$
...OTHER LOCATIONS IN NEW MEXICO...

CITY           SKY/WX    TMP DP  RH WIND       PRES   REMARKS
ALAMAGORDO     CLOUDY    36   9  32 SE3       30.06R
ALBUQUERQUE    MOCLDY    34  16  47 SE7       30.11F WCI  28
CANNON AFB     CLOUDY    38  24  57 NE17      30.02F WCI  29
CLOVIS         CLOUDY    37  23  56 N20G25    30.05S WCI  27
HOLLOMAN AFB   CLOUDY    32  10  38 NW3       30.05R
ROSWELL        CLOUDY    41  16  36 N10       30.03R WCI  35
RUIDOSO          N/A     45   5  19 W10G21    30.13R WCI  39
SANTA FE       CLOUDY    30  18  60 N7        30.10R WCI  23
TRUTH OR CONSE PTCLDY    43  11  27 N3        30.09R
TUCUMCARI      CLOUDY    35  22  58 CALM      30.07S
$$

USA.gov is the U.S. government's official web portal to all federal, state and local government web resources and services.